STARLINK-1727, 46335

Orbit data source: Space-Track

STARLINK-1727, 46335 is a payload satellite owned by SpaceX/Seattle (US) in LEO that was launched on Thu, 03 Sep 2020 UTC via an FALCON 9 launch vehicle from the Air Force Eastern Test Range (AFETR). Payload-class satellites include a variety of spacecraft equipped with specific instruments for various scientific and technological missions. These include communications satellites like Starlink; space stations such as the ISS; scientific satellites like the Hubble; Earth observation satellites from companies like Planet Labs, Umbra, and HawkEye 360; GPS; miniature CubeSats for education and research; and military/defense satellites.

Loading next visibility...
Identifier
46335, 2020-062L
Orbit
LEO
Country
Flag of USUS
Related business
Manufacturer
SpaceX/Seattle
Mission
Operational Commercial Communications
Bus & Motor
STARLINK, Unknown motor
Mass
260 kg wet, ~248 kg dry
Launch date (UTC)
2020-09-03 (5 years ago)
Launch vehicle
FALCON 9
Launch site
Air Force Eastern Test Range (AFETR)
Object type
Payload
Rocket body
Debris
Shape & HBR
Box + 1 Pan, 10.1 m
Radar Cross Section
13.562 m², Large (>1 m²)

Expand to show TLE details & history
Last TLE update: 1 day ago

TLE from 1 day ago
0 STARLINK-1727
1 46335U 20062L   25287.33723158  .00000530  00000-0  54497-4 0  9998
2 46335  53.0547 313.6214 0001462  94.5681 265.5475 15.06393898282258
Epoch: 2025-10-14T08:05Z
TLE epoch observation values (Epoch: 2025-10-14T08:05:36.808Z)
Latitude
-0.00002°
Longitude
169.09091°
Altitude
548.188 km
Speed
7.589 km/s
True Right ascension
20h 54m 29s
True Declination
0° 00' 00"
Sunlit
Object was in full shadow at epoch
Visualization orbit readout
Latitude
Unknown
Longitude
Unknown
Altitude
Unknown
Speed
Unknown
Apparent Right ascension
Unknown
Apparent Declination
Unknown
Sunlit
N/A
Visualization observer readout
Local Sidereal Time
06:14:43
Azimuth
Unknown
Elevation
Unknown
Doppler factor
Unknown
Orbital elements
Apogee altitude
548.513 km
Perigee altitude
546.488 km
Semi-major axis
6,925.638 km
Eccentricity
0.00015
Inclination
53.0547°
RAAN
313.6214°
Arg. of periapsis
94.5681°
True anomaly
265.5308°
Mean anomaly
265.5475°
Eccentric anomaly
265.53915°
Mean motion
3.76577 °/min
Orbital period
95.6 mins
BSTAR
0.000054497
Loading maneuver chart data...
Computing Atmospheric mass density...
Loading historical data...
Loading historical data...
Loading historical data...
Loading historical data...
Loading historical data...
Loading historical data...
Loading historical data...

Documentation

Showing up to 5 results
|